QAK651 MMAA-MMMZ

Flight info

Callsign QAK651
Flight time N/A
Altitude 43000
Route AGLON UJ3 UPN UJ7 GDL UJ12 ALILI
Aircraft C700/M-SBDGHM1RWXY/LB2

Departure

Time N/A
Airport General Juan N. Álvarez International Airport (MMAA)

Arrival

Time 2026-04-24 22:35
Airport General Rafael Buelna International Airport (MMMZ)
Time Latitude Longitude Altitude Speed Heading
2026-04-24 21:46 19.87914 -102.58221 43095 ft 448 kts 309°
2026-04-24 21:47 19.89984 -102.60551 43093 ft 447 kts 309°
2026-04-24 21:47 19.94082 -102.65163 43089 ft 448 kts 309°
2026-04-24 21:48 19.98238 -102.69846 43092 ft 452 kts 309°
2026-04-24 21:48 20.02414 -102.74554 43091 ft 452 kts 309°
2026-04-24 21:49 20.06508 -102.79171 43091 ft 444 kts 309°
2026-04-24 21:49 20.10573 -102.83767 43088 ft 447 kts 309°
2026-04-24 21:50 20.14683 -102.88410 43090 ft 451 kts 309°
2026-04-24 21:50 20.18851 -102.93126 43093 ft 447 kts 309°
2026-04-24 21:51 20.22931 -102.97744 43091 ft 444 kts 309°
2026-04-24 21:51 20.27003 -103.02360 43088 ft 446 kts 309°
2026-04-24 21:52 20.31113 -103.07021 43090 ft 449 kts 309°
2026-04-24 21:52 20.35261 -103.11730 43093 ft 449 kts 309°
2026-04-24 21:53 20.39353 -103.16376 43093 ft 446 kts 309°
2026-04-24 21:53 20.43386 -103.20962 43090 ft 445 kts 309°
2026-04-24 21:54 20.47507 -103.25653 43091 ft 448 kts 309°
2026-04-24 21:54 20.51435 -103.30140 43090 ft 449 kts 308°
2026-04-24 21:55 20.54729 -103.35153 43093 ft 444 kts 299°
2026-04-24 21:55 20.57938 -103.40481 43095 ft 442 kts 300°
2026-04-24 21:56 20.61111 -103.45789 43089 ft 446 kts 299°
2026-04-24 21:56 20.64332 -103.51168 43093 ft 451 kts 300°
2026-04-24 21:57 20.67577 -103.56594 43096 ft 448 kts 299°
2026-04-24 21:57 20.70792 -103.61979 43089 ft 445 kts 299°
2026-04-24 21:58 20.74018 -103.67386 43086 ft 445 kts 299°
2026-04-24 21:58 20.77237 -103.72786 43082 ft 449 kts 299°
2026-04-24 21:59 20.80471 -103.78214 43084 ft 450 kts 299°
2026-04-24 21:59 20.83625 -103.83496 43072 ft 445 kts 299°
2026-04-24 22:00 20.86910 -103.89011 43060 ft 444 kts 299°
2026-04-24 22:00 20.90098 -103.94386 43061 ft 447 kts 299°
2026-04-24 22:01 20.93256 -103.99712 43056 ft 449 kts 299°
2026-04-24 22:01 20.96475 -104.05145 43056 ft 445 kts 299°
2026-04-24 22:02 20.99677 -104.10557 43042 ft 443 kts 299°
2026-04-24 22:02 21.02847 -104.15920 43036 ft 446 kts 299°
2026-04-24 22:03 21.06062 -104.21364 43039 ft 448 kts 299°
2026-04-24 22:03 21.09278 -104.26812 43026 ft 445 kts 299°
2026-04-24 22:04 21.11960 -104.31363 43023 ft 441 kts 299°
2026-04-24 22:04 21.15652 -104.37636 43017 ft 445 kts 299°
2026-04-24 22:05 21.18855 -104.43079 43018 ft 448 kts 299°
2026-04-24 22:05 21.22045 -104.48503 43018 ft 444 kts 298°
2026-04-24 22:06 21.25157 -104.53803 43004 ft 439 kts 298°
2026-04-24 22:06 21.28376 -104.59295 43002 ft 443 kts 298°
2026-04-24 22:07 21.31542 -104.64695 43004 ft 446 kts 298°
2026-04-24 22:07 21.34652 -104.70008 43006 ft 443 kts 298°
2026-04-24 22:08 21.37201 -104.74366 43006 ft 441 kts 298°
2026-04-24 22:08 21.40252 -104.79585 43002 ft 440 kts 298°
2026-04-24 22:09 21.43957 -104.84531 43003 ft 450 kts 311°
2026-04-24 22:09 21.48806 -104.88697 43007 ft 457 kts 318°
2026-04-24 22:10 21.54430 -104.93298 43014 ft 456 kts 318°
2026-04-24 22:10 21.58459 -104.96577 43013 ft 454 kts 318°
2026-04-24 22:11 21.63132 -105.00394 43012 ft 452 kts 318°
2026-04-24 22:11 21.67992 -105.04365 43008 ft 452 kts 318°
2026-04-24 22:12 21.72861 -105.08349 43010 ft 456 kts 318°
2026-04-24 22:12 21.77739 -105.12340 43009 ft 456 kts 318°
2026-04-24 22:13 21.82601 -105.16323 43009 ft 453 kts 318°
2026-04-24 22:13 21.85054 -105.18334 42802 ft 453 kts 318°
2026-04-24 22:13 21.87489 -105.20331 42211 ft 449 kts 318°
2026-04-24 22:13 21.89851 -105.22268 41462 ft 444 kts 318°
2026-04-24 22:14 21.92238 -105.24225 40762 ft 437 kts 318°
2026-04-24 22:14 21.94505 -105.26088 40101 ft 430 kts 318°
2026-04-24 22:14 21.96802 -105.27975 39695 ft 417 kts 318°
2026-04-24 22:14 21.99030 -105.29805 39422 ft 407 kts 318°
2026-04-24 22:15 22.01155 -105.31555 39150 ft 413 kts 317°
2026-04-24 22:15 22.03418 -105.33428 38903 ft 425 kts 317°
2026-04-24 22:15 22.05673 -105.35283 38692 ft 430 kts 318°
2026-04-24 22:15 22.08007 -105.37195 38485 ft 430 kts 318°
2026-04-24 22:16 22.10310 -105.39091 38280 ft 428 kts 318°
2026-04-24 22:16 22.12534 -105.40927 38086 ft 427 kts 318°
2026-04-24 22:16 22.14831 -105.42826 37887 ft 427 kts 318°
2026-04-24 22:16 22.17075 -105.44677 37689 ft 428 kts 318°
2026-04-24 22:17 22.19376 -105.46575 37496 ft 428 kts 318°
2026-04-24 22:17 22.21642 -105.48447 37313 ft 430 kts 318°
2026-04-24 22:17 22.23958 -105.50361 37130 ft 432 kts 318°
2026-04-24 22:17 22.26272 -105.52272 36955 ft 433 kts 318°
2026-04-24 22:18 22.28527 -105.54136 36790 ft 434 kts 318°
2026-04-24 22:18 22.30879 -105.56081 36624 ft 434 kts 318°
2026-04-24 22:18 22.33211 -105.58009 36460 ft 434 kts 318°
2026-04-24 22:18 22.35545 -105.59942 36292 ft 434 kts 318°
2026-04-24 22:19 22.37897 -105.61895 36119 ft 440 kts 318°
2026-04-24 22:19 22.40276 -105.63866 35962 ft 448 kts 318°
2026-04-24 22:19 22.42649 -105.65829 35816 ft 447 kts 318°
2026-04-24 22:19 22.45058 -105.67822 35663 ft 444 kts 318°
2026-04-24 22:20 22.47389 -105.69760 35501 ft 443 kts 318°
2026-04-24 22:20 22.49782 -105.71749 35358 ft 446 kts 318°
2026-04-24 22:20 22.52191 -105.73750 35215 ft 449 kts 318°
2026-04-24 22:20 22.54551 -105.75708 35080 ft 450 kts 318°
2026-04-24 22:21 22.56981 -105.77727 34944 ft 449 kts 318°
2026-04-24 22:21 22.59339 -105.79688 34813 ft 449 kts 318°
2026-04-24 22:21 22.61769 -105.81711 34679 ft 449 kts 318°
2026-04-24 22:21 22.64180 -105.83717 34547 ft 449 kts 318°
2026-04-24 22:22 22.66493 -105.85643 34422 ft 449 kts 318°
2026-04-24 22:22 22.68908 -105.87652 34281 ft 448 kts 318°
2026-04-24 22:22 22.71121 -105.89479 32383 ft 406 kts 318°
2026-04-24 22:22 22.73284 -105.91284 29625 ft 392 kts 317°
2026-04-24 22:23 22.75354 -105.93025 27114 ft 377 kts 318°
2026-04-24 22:23 22.77290 -105.94638 25172 ft 353 kts 319°
2026-04-24 22:23 22.79135 -105.96171 23023 ft 338 kts 319°
2026-04-24 22:23 22.80856 -105.97611 20926 ft 328 kts 319°
2026-04-24 22:24 22.82624 -105.99091 18780 ft 318 kts 320°
2026-04-24 22:24 22.84313 -106.00501 16702 ft 309 kts 320°
2026-04-24 22:24 22.85910 -106.01835 14734 ft 301 kts 321°
2026-04-24 22:24 22.87512 -106.03174 12752 ft 293 kts 321°
2026-04-24 22:25 22.89053 -106.04461 10850 ft 286 kts 321°
2026-04-24 22:25 22.90551 -106.05713 9015 ft 287 kts 321°
2026-04-24 22:25 22.92123 -106.07031 7829 ft 277 kts 321°
2026-04-24 22:25 22.93456 -106.08142 7644 ft 236 kts 321°
2026-04-24 22:26 22.94743 -106.09223 7341 ft 241 kts 320°
2026-04-24 22:26 22.96018 -106.10291 7037 ft 232 kts 321°
2026-04-24 22:26 22.97216 -106.11292 6750 ft 226 kts 321°
2026-04-24 22:26 22.98419 -106.12300 6463 ft 223 kts 321°
2026-04-24 22:27 22.99582 -106.13279 6185 ft 224 kts 320°
2026-04-24 22:27 23.00842 -106.14193 5893 ft 225 kts 337°
2026-04-24 22:27 23.02363 -106.14234 5595 ft 229 kts 18°
2026-04-24 22:27 23.03674 -106.13408 5350 ft 230 kts 40°
2026-04-24 22:28 23.04687 -106.12126 5059 ft 227 kts 51°
2026-04-24 22:28 23.05775 -106.11006 4776 ft 225 kts 38°
2026-04-24 22:28 23.06967 -106.10041 4507 ft 202 kts 32°
2026-04-24 22:28 23.08079 -106.09324 4237 ft 182 kts 28°
2026-04-24 22:29 23.10326 -106.08244 3774 ft 180 kts 18°
2026-04-24 22:29 23.11448 -106.07863 3542 ft 176 kts 14°
2026-04-24 22:29 23.12613 -106.07704 3309 ft 172 kts 353°
2026-04-24 22:30 23.13687 -106.08065 3183 ft 166 kts 332°
2026-04-24 22:30 23.14535 -106.08774 3004 ft 153 kts 311°
2026-04-24 22:30 23.15063 -106.09690 2802 ft 146 kts 291°
2026-04-24 22:30 23.15290 -106.10732 2624 ft 147 kts 274°
2026-04-24 22:31 23.15355 -106.11778 2457 ft 142 kts 278°
2026-04-24 22:31 23.15466 -106.12806 2269 ft 142 kts 273°
2026-04-24 22:31 23.15518 -106.13803 2088 ft 140 kts 274°
2026-04-24 22:31 23.15583 -106.14837 1903 ft 142 kts 274°
2026-04-24 22:32 23.15629 -106.15868 1728 ft 139 kts 272°
2026-04-24 22:32 23.15676 -106.16866 1555 ft 138 kts 275°
2026-04-24 22:32 23.15731 -106.17884 1376 ft 138 kts 274°
2026-04-24 22:32 23.15776 -106.18870 1202 ft 137 kts 274°
2026-04-24 22:33 23.15823 -106.19880 1023 ft 137 kts 274°
2026-04-24 22:33 23.15877 -106.20896 844 ft 137 kts 274°
2026-04-24 22:33 23.15923 -106.21820 675 ft 137 kts 273°
2026-04-24 22:33 23.15965 -106.22837 473 ft 139 kts 274°
2026-04-24 22:34 23.16020 -106.23858 276 ft 137 kts 274°
2026-04-24 22:34 23.16068 -106.24856 101 ft 136 kts 273°
2026-04-24 22:34 23.16117 -106.25836 34 ft 116 kts 274°
2026-04-24 22:34 23.16151 -106.26493 31 ft 51 kts 273°
2026-04-24 22:35 23.16200 -106.26704 30 ft 21 kts 300°
2026-04-24 22:35 23.16262 -106.26806 30 ft 12 kts 308°
2026-04-24 22:35 23.16331 -106.26853 30 ft 15 kts 351°
2026-04-24 22:35 23.16448 -106.26850 30 ft 19 kts 14°
2026-04-24 22:36 23.16542 -106.26805 30 ft 8 kts 69°
2026-04-24 22:36 23.16543 -106.26742 30 ft 9 kts 84°
2026-04-24 22:36 23.16565 -106.26708 30 ft 4 kts 81°
2026-04-24 22:36 23.16564 -106.26695 30 ft 0 kts 94°